Showing default

WARATAH SEED-1, 60469

Orbit data source: Space-Track

WARATAH SEED-1, 60469 is a payload satellite owned by U Sydney (AU) in SSO that was launched on Fri, 16 Aug 2024 UTC via an FALCON 9 launch vehicle from the Air Force Western Test Range (AFWTR). Payload-class satellites include a variety of spacecraft equipped with specific instruments for various scientific and technological missions. These include communications satellites like Starlink; space stations such as the ISS; scientific satellites like the Hubble; Earth observation satellites from companies like Planet Labs, Umbra, and HawkEye 360; GPS; miniature CubeSats for education and research; and military/defense satellites.

Loading next visibility...
Identifier
60469, 2024-149B
Orbit
SSO
Country
Flag of AUAU / AUS
Related business
Manufacturer
U Sydney
Mission
Operational Amateur Technology
Bus & Motor
CUBESAT 6U, Unknown motor
Mass
10 kg wet, 10 kg dry
Launch date (UTC)
2024-08-16 (2 years ago)
Launch vehicle
FALCON 9
Launch site
Air Force Western Test Range (AFWTR)
Object type
Payload
Rocket body
Debris
Shape & HBR
Box, 0.1 m
Radar Cross Section
0.080 m², Medium (>0.1 m² and < 1m²)

Expand to show TLE details & history
Last TLE update: 10 hours ago

TLE from 10 hours ago
0 WARATAH SEED-1
1 60469U 24149B   26125.16219779  .00018786  00000-0  55683-3 0  9993
2 60469  97.3690 205.7332 0002447  58.7777 301.3706 15.34889971 95516
Epoch: 2026-05-05T03:53Z
TLE epoch observation values (Epoch: 2026-05-05T03:53:33.889Z)
Latitude
0.00002°
Longitude
-75.69901°
Altitude
463.488 km
Speed
7.635 km/s
True Right ascension
13h 42m 55s
True Declination
0° 00' 00"
Sunlit
Object was in full shadow at epoch
Visualization orbit readout
Latitude
Unknown
Longitude
Unknown
Altitude
Unknown
Speed
Unknown
Apparent Right ascension
Unknown
Apparent Declination
Unknown
Sunlit
N/A
Visualization observer readout
Local Sidereal Time
21:25:12
Azimuth
Unknown
Elevation
Unknown
Doppler factor
Unknown
Orbital elements
Apogee altitude
459.865 km
Perigee altitude
456.519 km
Semi-major axis
6,836.329 km
Eccentricity
0.00024
Inclination
97.369°
RAAN
205.7332°
Arg. of periapsis
58.7777°
True anomaly
301.34665°
Mean anomaly
301.3706°
Eccentric anomaly
301.35863°
Mean motion
3.8398 °/min
Orbital period
93.75 mins
BSTAR
0.00055683
Loading maneuver chart data...
Computing Atmospheric mass density...
Loading historical data...
Loading historical data...
Loading historical data...
Loading historical data...
Loading historical data...
Loading historical data...
Loading historical data...

Documentation

Showing up to 5 results
|